Main page
METAR-TAF:

METAR-TAF

Airports :

Teruel Airport

Teruel, Spain

latitude: 40-24-43N, longitude: 01-13-03W, elevation: 1030 m

Current weather observation

The report was made 22 minutes ago, at 06:00 UTC
Wind 1 kt from the West/Northwest
Temperature 5°C
Humidity 87%
Pressure 1028 hPa
Visibility 10 km or more

METAR: LETL 230600Z AUTO 29001KT 9999 NCD 05/03 Q1028

Time: 08:22 (06:22 UTC)


TAF: missing

Weather observations and forecasts of more than 4000 airports (METAR and TAF reports).

The available stations are represented by yellow and red dots on the map.

Hover mouse over dot to see the name of the station.

Then click to see weather observations and forecasts.

To change the map : click on the green buttons with a black cross to zoom in, on the green button with a dash to zoom out, or on the green arrows for adjacent maps.


METAR-TAF: